Location: Aletheia Temple Church
(32.7174°N, 97.2485°W)
Time: 09:18:44
(UTC+00:00)

ISS - Visible Passes

Search period start: 11 October 2024 00:00
Search period end: 21 October 2024 00:00
Orbit: 411 x 424 km, 51.6° (Epoch: 10 October)

Date Brightness Start Highest point End Pass type
(mag) Time Alt. Az. Time Alt. Az. Time Alt. Az.
12 Oct -0.4 12:06:16 10° SSE 12:07:32 12° SE 12:08:48 10° ESE visible
14 Oct -2.4 12:04:08 10° SSW 12:07:15 41° SE 12:10:24 10° ENE visible
15 Oct -1.2 11:16:17 10° S 11:18:49 21° SE 11:21:23 10° ENE visible
16 Oct -0.6 10:29:35 10° SE 10:30:20 11° SE 10:31:05 10° ESE visible
16 Oct -3.5 12:03:26 10° WSW 12:06:41 51° NW 12:09:55 10° NE visible
17 Oct -3.8 11:16:34 33° SW 11:17:52 77° SE 11:21:11 10° NE visible
18 Oct -1.4 10:30:27 23° E 10:30:27 23° E 10:32:05 10° ENE visible
18 Oct -2.1 12:03:24 10° W 12:05:48 18° NW 12:08:12 10° NNE visible
19 Oct -2.7 11:16:56 30° NNW 11:16:56 30° NNW 11:19:36 10° NNE visible
20 Oct -0.8 10:30:14 13° NE 10:30:14 13° NE 10:30:40 10° NE visible
